SCP
-0 -0 -0 -0 -0 -0 -0 -0 -0 -0 -0 -0 -0 -0 -0 -0 -0 -0 -0 -0 -0 -0 -0 -0 -0 -0 -0 -0 0 0 -0 -0 -0 0 -0 -0 -0 -0 0 -0 -0 -0 0 0 0 -0 -0
0 0 -0 -0 -0 -0 -0 -0 -0 -0 -0 -0 -0 -0 -0 -0 -0 -0 -0 -0 -0 -0 -0 -0 -0 -0 -0 -0 -0 -0 -0 -0 -0 -0 -0 -0 0 0 0 0 -0 -0 -0 -0 0 0 0
0 0 0 0 0 -0 -0 -0 -0 -0 -0 -0 -0 -0 -0 -0 -0 -0 -0 -0 -0 -0 -0 -0 -0 -0 -0 -0 -0 0 -0 0 0 -0 -0 -0 0 0 -0 -0 -0 -0 0 -0 -0 0 0
0 0 0 0 -0 -0 -0 -0 -0 -0 -0 -0 -0 -0 -0 -0 -0 -0 -0 -0 -0 -0 -0 -0 -0 -0 -0 -0 0 0 0 -0 -0 0 -0 0 0 0 0 -0 0 0 0 -0 -0 -0 0
0 0 0 0 -0 -0 -0 -0 -0 -0 -0 -0 -0 -0 -0 -0 -0 -0 -0 -0 0 -0 0 -0 0 -0 0 -0 0 0 0 0 0 -0 -0 0 0 0 0 -0 0 0 0 0 -0 -0 -0
0 0 0 -0 -0 -0 -0 -0 -0 -0 -0 -0 -0 -0 -0 -0 -0 -0 -0 -0 0 0 0 0 -0 -0 -0 0 0 0 0 0 0 -0 -0 -0 0 0 0 0 0 -0 0 -0 0 -0 0
0 0 -0 -0 -0 -0 -0 -0 -0 -0 -0 -0 -0 -0 -0 -0 -0 -0 -0 0 0 0 0 0 0 0 -0 0 0 0 0 -0 -0 -0 -0 -0 -0 -0 0 0 -0 -0 -0 -0 -0 -0 0
0 0 0 0 0 -0 -0 -0 -0 -0 -0 -0 -0 -0 -0 -0 -0 -0 -0 0 0 0 0 -0 -0 0 0 -0 0 0 0 0 -0 -0 -0 -0 -0 0 0 -0 0 0 -0 0 -0 0 0
-0 -0 -0 -0 0 0 0 0 0 0 0 -0 -0 -0 -0 -0 -0 0 0 0 0 0 0 0 0 0 -0 0 -0 0 0 0 -0 -0 -0 -0 -0 -0 0 0 0 -0 -0 -0 -0 -0 0
-0 -0 -0 -0 0 0 0 0 0 0 0 0 0 0 -0 -0 0 0 0 0 0 0 0 0 0 0 -0 0 0 0 0 0 -0 -0 -0 -0 0 0 0 -0 -0 0 -0 -0 -0 0 0
-0 -0 -0 -0 -0 0 0 -0 0 0 -0 0 0 0 0 0 0 0 0 0 0 0 0 0 0 0 0 0 0 0 0 0 -0 -0 0 -0 0 0 0 -0 0 0 -0 -0 -0 -0 0
0 0 0 0 0 0 0 0 0 0 0 0 0 0 0 0 0 0 0 0 0 0 0 0 0 0 0 -0 0 0 0 0 0 -0 -0 0 0 0 0 0 0 0 0 0 0 0 0
0 0 0 0 0 0 0 -0 -0 -0 -0 -0 -0 -0 0 0 0 0 0 0 0 0 0 0 0 0 0 0 0 0 0 0 0 0 -0 0 -0 -0 -0 0 0 -0 0 0 0 0 -0
0 0 0 0 0 -0 -0 -0 -0 -0 -0 -0 -0 -0 0 0 0 0 0 0 0 0 -0 0 0 0 0 0 -0 0 0 0 0 0 -0 -0 0 -0 -0 -0 0 -0 0 0 -0 0 -0
-0 0 0 0 0 0 0 0 0 0 -0 -0 -0 0 0 0 0 0 0 0 0 -0 0 -0 -0 0 0 0 0 0 0 0 -0 -0 -0 -0 -0 0 -0 -0 -0 0 0 0 -0 0 0
0 0 0 0 0 0 0 0 0 0 -0 -0 0 0 0 0 0 0 0 0 0 0 0 0 -0 0 0 0 0 0 -0 -0 -0 -0 -0 0 0 0 0 -0 0 0 0 0 0 0 0
0 0 0 0 0 0 0 0 0 0 -0 0 0 0 0 0 0 0 0 0 0 0 0 0 0 0 0 0 0 0 0 0 -0 -0 -0 0 0 -0 0 0 -0 0 0 0 0 0 0
0 0 0 0 0 0 0 0 0 0 0 0 0 0 0 0 0 0 0 0 0 0 0 0 0 0 0 0 0 0 0 0 0 -0 0 -0 0 0 -0 0 -0 0 0 0 0 0 0
0 0 0 0 0 0 0 0 0 0 0 0 0 0 0 0 0 0 0 0 0 0 0 0 0 0 0 0 0 0 0 0 0 0 0 0 0 0 0 0 0 0 0 0 0 0 0
0 0 0 0 0 0 0 0 0 0 0 0 0 0 0 0 0 0 0 0 0 0 0 0 0 0 0 0 0 0 0 0 0 0 0 0 0 0 0 0 0 0 0 0 0 0 0
0 0 0 0 0 0 0 0 0 0 0 0 0 0 0 0 0 0 0 0 0 0 0 0 0 0 0 0 0 0 0 0 0 0 0 0 0 0 0 0 0 0 0 0 0 -0 0
0 0 0 0 0 0 0 0 0 0 0 0 0 0 0 0 0 0 0 0 0 0 0 0 0 0 0 0 0 0 0 0 0 0 0 0 0 0 0 0 0 0 0 0 0 0 0
0 0 0 0 0 0 0 0 0 0 0 0 0 0 0 0 0 0 0 0 0 0 0 0 0 0 0 0 0 0 0 0 0 0 0 0 0 0 0 0 0 0 0 0 0 0 0
0 0 0 0 0 0 0 0 0 0 0 0 0 0 0 0 0 0 0 0 0 0 0 0 0 0 0 0 0 0 0 0 0 0 0 0 0 0 0 0 0 0 0 0 0 0 0
0 0 0 0 0 0 0 0 0 0 0 0 0 0 0 0 0 0 0 0 0 0 0 0 0 0 0 0 0 0 0 0 0 0 0 0 0 0 0 0 0 0 0 0 0 0 0
0 0 0 0 0 0 0 0 0 0 0 0 0 0 0 0 0 0 0 0 0 0 0 0 0 0 0 0 0 0 0 0 0 0 0 0 0 0 0 0 0 0 0 -0 0 0 0
0 0 0 0 0 0 0 0 0 0 0 0 0 0 0 0 0 0 0 0 0 0 0 0 0 0 0 0 0 0 0 0 0 0 0 0 0 0 0 0 0 0 0 0 0 0 0
0 0 0 0 0 0 0 0 0 0 0 0 0 0 0 0 0 0 0 0 0 0 0 0 0 0 0 0 0 0 0 0 0 0 0 0 0 0 0 0 0 0 0 0 0 0 0
0 0 0 0 0 0 0 0 0 0 0 0 0 0 0 0 0 0 0 0 0 0 0 0 0 0 0 0 0 0 0 0 0 0 0 0 0 0 0 0 0 0 0 0 0 0 0
Wind_Speed_500mb
35 35 35 35 36 36 37 37 37 37 36 35 33 31 29 26 26 25 25 23 18 14 11 10 10 9 7 9 20 4 4 6 16 20 20 18 19 9 10 6 10 16 10 12 22 32 23
33 33 34 34 35 35 36 37 38 37 36 35 34 32 30 28 26 25 25 23 16 13 12 11 10 10 9 8 5 12 7 19 23 24 20 20 13 10 22 10 21 12 25 10 21 24 11
33 34 34 34 35 36 37 38 39 38 37 36 34 33 31 29 27 24 23 22 20 18 15 14 14 14 21 25 8 4 9 14 19 22 19 9 21 23 17 13 21 42 12 7 12 9 10
36 37 37 37 38 38 38 38 38 39 38 37 35 33 32 30 28 25 23 23 22 21 17 16 16 20 19 18 18 23 17 5 9 13 15 9 22 9 11 36 9 8 6 5 7 15 16
41 39 38 38 38 39 39 39 39 39 38 38 36 34 32 31 30 26 24 24 22 22 18 15 14 14 19 13 27 26 27 17 7 10 15 20 21 8 21 13 7 4 4 8 7 24 9
41 41 39 37 38 39 39 39 39 39 39 39 38 35 32 30 31 28 22 23 24 26 17 16 21 15 24 13 22 34 22 21 24 18 24 21 6 5 5 6 10 12 6 8 3 17 10
41 41 42 42 41 40 40 41 41 41 41 41 39 37 34 29 29 29 19 17 12 3 14 28 21 27 36 25 22 23 27 25 25 21 9 19 6 14 21 17 13 18 15 8 9 14 12
43 43 44 45 44 43 42 42 42 41 41 42 42 40 36 29 27 22 14 7 9 25 25 36 46 56 50 25 12 20 28 21 12 11 7 9 12 30 14 22 14 12 17 12 26 15 8
42 42 43 43 44 44 44 44 44 44 43 43 43 42 38 28 22 9 9 18 29 33 14 35 50 53 56 36 37 33 37 31 8 9 11 15 25 5 16 12 19 10 18 19 8 19 5
48 47 46 45 45 45 44 45 45 46 46 45 44 43 41 31 9 11 7 19 15 28 8 14 10 18 35 30 22 26 45 29 8 20 15 13 34 24 18 22 22 12 36 30 28 25 10
48 46 46 47 47 47 46 47 47 47 47 46 45 43 37 34 30 17 15 9 6 4 6 9 9 15 27 33 9 20 48 39 16 13 12 20 11 10 16 14 27 21 24 36 41 26 9
48 45 44 43 43 44 44 46 48 48 47 47 43 41 40 33 30 10 9 9 5 10 12 9 18 15 15 21 12 36 48 28 18 8 8 20 28 11 17 13 9 9 9 16 10 5 4
45 42 41 42 43 43 43 44 47 47 46 48 45 40 41 37 22 12 9 4 8 7 9 8 5 12 16 14 9 17 15 13 13 4 9 15 16 14 11 7 12 9 12 6 7 7 10
43 42 43 43 42 43 44 43 45 46 49 52 49 42 39 37 18 16 11 8 5 11 9 10 11 2 14 14 14 14 17 13 13 11 4 5 18 6 9 15 14 11 18 12 13 7 7
47 44 44 43 42 43 44 45 47 48 47 53 49 38 30 7 20 27 16 3 12 11 6 11 13 8 19 7 9 15 19 22 19 18 16 9 13 12 14 16 18 7 5 13 14 2 7
46 43 41 40 40 42 43 44 45 47 46 51 48 38 16 15 19 32 9 10 9 5 12 9 2 5 12 11 9 11 21 16 13 27 33 17 9 12 10 9 6 16 12 6 6 7 6
42 38 36 36 38 40 42 44 46 49 48 44 35 18 11 40 26 11 5 12 11 25 24 7 5 13 9 12 10 3 16 13 26 15 28 12 12 26 7 8 16 4 3 7 10 11 11
38 37 36 37 39 40 42 44 46 49 51 44 20 5 21 32 6 5 5 9 7 19 34 12 9 13 14 10 9 6 7 7 19 43 16 22 13 12 25 11 19 17 16 13 9 6 3
34 35 37 38 37 38 39 41 42 45 50 55 30 13 13 31 2 6 13 14 22 29 29 10 12 13 13 11 3 5 9 16 20 6 19 13 7 4 17 13 9 5 8 7 9 8 9
35 36 37 35 35 36 37 38 38 39 41 42 15 8 13 12 8 8 12 12 16 31 27 22 20 20 11 9 11 9 8 14 38 12 9 16 7 16 16 14 9 5 2 11 10 7 9
36 37 36 34 35 36 34 35 34 34 33 26 12 5 13 7 13 19 8 11 21 16 12 28 15 16 14 12 6 7 1 24 17 15 14 9 9 9 11 14 10 7 3 5 3 13 11
36 35 33 33 34 35 36 36 32 31 27 14 13 12 17 17 24 17 8 10 18 22 13 12 16 28 27 6 11 5 2 5 8 13 8 11 5 2 3 16 16 4 10 10 3 14 6
32 31 32 33 34 35 35 34 33 31 28 10 16 12 7 14 12 8 10 21 26 25 15 31 23 18 12 26 47 35 15 14 14 6 7 6 2 6 6 11 12 6 13 13 6 10 14
30 29 29 32 34 36 37 35 31 26 26 24 14 16 9 8 6 7 18 21 27 30 11 26 32 8 30 51 45 18 10 9 13 7 12 10 5 5 5 6 8 15 13 16 21 7 7
28 28 26 26 29 32 33 34 28 23 18 18 9 6 7 10 15 15 32 15 38 40 16 15 30 37 49 22 10 9 9 6 8 11 9 9 5 5 7 8 8 5 8 13 10 6 5
29 27 25 25 27 29 32 31 25 24 23 12 4 5 10 10 5 16 22 25 9 9 14 14 46 28 31 7 7 4 5 8 8 9 10 14 6 9 4 12 5 11 10 25 8 6 10
29 27 25 24 25 27 27 27 27 27 25 20 11 10 15 13 31 9 7 14 21 12 8 18 31 22 16 5 6 4 6 5 4 3 3 4 5 14 8 4 8 10 20 18 11 15 16
31 28 25 25 25 24 24 26 26 26 27 28 20 21 19 15 40 60 28 17 21 15 5 22 19 13 13 5 5 8 4 5 4 5 9 3 8 7 6 7 9 15 13 2 8 12 26
28 30 28 28 21 23 25 26 28 31 32 30 29 17 23 30 42 57 66 74 76 68 45 17 12 15 5 3 4 7 7 7 3 4 11 5 5 6 13 13 13 15 23 13 11 14 36
Wind_Direction_500mb
23 20 19 19 18 17 16 13 11 10 8 7 3 359 354 348 346 345 345 346 340 329 330 339 343 337 310 247 234 94 24 257 229 243 250 254 285 25 104 83 110 17 96 51 90 119 108
10 9 7 6 5 5 4 2 1 0 360 358 357 354 350 344 338 336 339 341 340 321 313 310 315 321 304 266 192 232 298 269 238 234 239 241 301 70 113 97 78 311 96 71 96 127 127
359 357 355 355 354 354 354 353 352 351 350 350 349 348 346 341 333 326 327 327 323 320 297 294 293 301 284 247 169 204 301 317 229 217 226 238 321 320 147 107 96 53 53 9 92 131 112
347 346 346 346 347 347 347 347 346 345 344 343 342 341 340 337 331 319 314 313 313 319 300 278 286 302 271 209 241 241 244 296 187 214 259 319 317 314 105 121 85 60 94 287 213 182 193
344 340 340 341 342 343 343 344 344 344 342 340 338 337 335 332 328 316 309 305 305 307 300 268 280 297 270 208 231 233 226 260 244 230 255 291 287 127 135 124 77 110 146 231 163 210 162
348 351 348 345 342 342 342 344 344 343 342 340 337 334 333 329 324 317 310 300 302 292 278 262 256 298 251 251 239 229 226 226 239 240 248 259 245 107 61 101 213 160 148 254 164 188 174
346 347 348 346 344 344 343 343 342 342 341 340 338 335 332 330 321 316 312 304 332 318 288 246 262 245 280 306 176 194 175 212 237 250 185 262 93 229 225 203 193 143 134 169 338 210 159
342 341 342 342 342 342 342 342 341 340 340 339 337 335 333 331 316 313 310 283 325 311 296 277 263 265 268 220 228 179 180 204 208 213 191 3 240 239 230 205 207 123 140 184 181 196 114
338 337 337 338 339 335 335 336 336 334 334 336 336 334 332 334 310 291 323 4 11 337 286 291 245 235 246 235 229 180 193 203 188 212 203 191 241 212 187 219 232 136 181 191 172 161 73
341 338 337 334 331 332 330 328 327 326 326 326 329 332 332 334 314 288 316 349 351 5 30 278 209 226 228 227 222 210 195 189 206 215 218 220 257 247 251 223 194 169 207 190 164 145 212
340 337 335 334 332 332 327 327 326 323 320 319 320 322 325 321 307 317 296 329 335 34 345 249 183 163 184 185 149 190 194 197 216 240 105 240 259 242 243 211 173 224 153 205 171 175 124
338 338 338 336 333 332 332 332 328 324 323 319 314 315 311 308 299 314 265 271 351 49 257 285 162 145 128 197 210 162 186 202 220 231 250 251 272 192 221 262 193 241 120 54 119 140 9
335 338 337 336 335 331 328 329 329 328 326 320 314 310 298 286 281 269 330 278 52 165 316 288 147 143 161 193 233 147 173 208 179 162 297 312 291 281 216 205 350 107 65 13 8 7 221
345 341 339 338 338 337 336 332 329 328 328 320 320 312 286 270 263 240 233 69 193 241 280 324 352 230 195 178 234 166 154 200 260 123 101 240 315 259 247 174 180 189 148 155 196 195 268
346 343 343 343 344 343 342 340 338 337 339 326 329 324 295 264 205 187 160 125 209 213 309 6 349 8 220 238 209 159 183 204 204 171 171 188 262 272 222 192 132 219 142 193 103 318 77
344 344 347 349 350 352 351 348 345 344 346 336 339 336 4 170 160 158 91 226 244 307 19 23 18 281 30 304 299 196 181 206 217 200 185 218 287 262 270 112 186 153 169 69 27 140 147
344 349 354 356 357 356 353 350 349 346 350 347 343 344 64 144 142 149 168 233 287 289 318 321 326 310 292 274 215 286 224 258 210 227 166 164 153 270 106 173 194 303 225 79 122 126 146
347 352 354 354 353 354 353 351 351 350 352 360 3 354 148 158 120 188 187 219 262 279 289 284 259 256 238 256 273 221 253 227 228 223 182 194 164 210 228 224 201 180 198 136 128 220 103
347 349 348 348 349 350 351 351 352 354 357 356 344 302 188 206 185 273 297 288 277 273 268 245 246 232 272 205 319 234 286 293 313 244 206 186 213 243 334 351 27 65 50 62 102 86 185
348 348 346 347 348 348 349 351 353 356 354 354 358 352 339 353 331 26 352 303 324 315 284 321 247 248 244 232 179 239 312 296 318 348 344 125 143 162 193 203 162 147 321 120 104 107 179
344 344 344 347 347 348 351 351 354 356 356 359 23 355 15 329 336 327 314 279 330 335 345 1 347 1 282 223 264 264 219 304 325 344 35 85 188 146 178 169 169 158 14 14 2 152 183
343 346 347 350 349 348 350 352 354 359 4 26 24 5 337 295 298 326 306 308 324 344 334 352 354 334 11 44 289 209 112 260 212 320 67 10 309 89 148 153 140 97 316 284 337 14 19
347 348 349 349 348 349 348 347 349 356 8 12 344 331 300 292 314 0 4 337 343 345 316 348 329 333 7 344 317 288 262 248 250 142 89 66 40 52 190 138 103 40 179 258 83 235 161
343 343 344 346 353 354 350 347 348 356 8 11 11 351 332 283 329 5 333 330 340 333 285 327 339 54 326 334 324 283 266 296 232 206 143 128 146 95 121 70 130 240 180 197 197 278 277
341 339 339 345 351 353 350 348 350 348 349 2 18 355 337 292 331 315 342 323 320 346 336 302 357 329 332 331 353 357 341 15 231 201 175 130 120 83 132 148 273 32 249 184 183 250 210
339 341 339 343 347 349 349 345 350 346 343 339 309 271 272 309 261 353 314 308 328 320 333 295 340 338 1 58 33 353 235 229 212 206 232 113 121 128 279 123 170 253 285 237 116 287 217
335 335 338 336 336 339 343 352 356 352 347 340 309 267 260 253 280 267 328 309 304 335 274 314 342 335 9 42 327 228 265 276 261 138 111 89 89 167 171 187 232 218 320 353 127 228 193
332 335 337 333 330 331 336 335 333 330 327 324 314 277 273 258 278 281 284 258 292 273 286 321 347 358 354 107 340 277 225 273 6 300 117 161 148 199 106 114 270 163 60 209 254 251 187
327 330 329 329 329 329 330 331 330 327 321 312 311 294 276 271 263 280 279 278 272 265 262 283 294 306 271 28 99 310 321 10 344 315 340 35 283 254 162 203 235 170 121 2 357 246 164
Wind_Speed_850mb
35 35 35 35 36 36 37 37 37 37 36 35 33 31 29 26 26 25 25 23 18 14 11 10 10 9 7 9 20 4 4 6 16 20 20 18 19 9 10 6 10 16 10 12 22 32 23
33 33 34 34 35 35 36 37 38 37 36 35 34 32 30 28 26 25 25 23 16 13 12 11 10 10 9 8 5 12 7 19 23 24 20 20 13 10 22 10 21 12 25 10 21 24 11
33 34 34 34 35 36 37 38 39 38 37 36 34 33 31 29 27 24 23 22 20 18 15 14 14 14 21 25 8 4 9 14 19 22 19 9 21 23 17 13 21 42 12 7 12 9 10
36 37 37 37 38 38 38 38 38 39 38 37 35 33 32 30 28 25 23 23 22 21 17 16 16 20 19 18 18 23 17 5 9 13 15 9 22 9 11 36 9 8 6 5 7 15 16
41 39 38 38 38 39 39 39 39 39 38 38 36 34 32 31 30 26 24 24 22 22 18 15 14 14 19 13 27 26 27 17 7 10 15 20 21 8 21 13 7 4 4 8 7 24 9
41 41 39 37 38 39 39 39 39 39 39 39 38 35 32 30 31 28 22 23 24 26 17 16 21 15 24 13 22 34 22 21 24 18 24 21 6 5 5 6 10 12 6 8 3 17 10
41 41 42 42 41 40 40 41 41 41 41 41 39 37 34 29 29 29 19 17 12 3 14 28 21 27 36 25 22 23 27 25 25 21 9 19 6 14 21 17 13 18 15 8 9 14 12
43 43 44 45 44 43 42 42 42 41 41 42 42 40 36 29 27 22 14 7 9 25 25 36 46 56 50 25 12 20 28 21 12 11 7 9 12 30 14 22 14 12 17 12 26 15 8
42 42 43 43 44 44 44 44 44 44 43 43 43 42 38 28 22 9 9 18 29 33 14 35 50 53 56 36 37 33 37 31 8 9 11 15 25 5 16 12 19 10 18 19 8 19 5
48 47 46 45 45 45 44 45 45 46 46 45 44 43 41 31 9 11 7 19 15 28 8 14 10 18 35 30 22 26 45 29 8 20 15 13 34 24 18 22 22 12 36 30 28 25 10
48 46 46 47 47 47 46 47 47 47 47 46 45 43 37 34 30 17 15 9 6 4 6 9 9 15 27 33 9 20 48 39 16 13 12 20 11 10 16 14 27 21 24 36 41 26 9
48 45 44 43 43 44 44 46 48 48 47 47 43 41 40 33 30 10 9 9 5 10 12 9 18 15 15 21 12 36 48 28 18 8 8 20 28 11 17 13 9 9 9 16 10 5 4
45 42 41 42 43 43 43 44 47 47 46 48 45 40 41 37 22 12 9 4 8 7 9 8 5 12 16 14 9 17 15 13 13 4 9 15 16 14 11 7 12 9 12 6 7 7 10
43 42 43 43 42 43 44 43 45 46 49 52 49 42 39 37 18 16 11 8 5 11 9 10 11 2 14 14 14 14 17 13 13 11 4 5 18 6 9 15 14 11 18 12 13 7 7
47 44 44 43 42 43 44 45 47 48 47 53 49 38 30 7 20 27 16 3 12 11 6 11 13 8 19 7 9 15 19 22 19 18 16 9 13 12 14 16 18 7 5 13 14 2 7
46 43 41 40 40 42 43 44 45 47 46 51 48 38 16 15 19 32 9 10 9 5 12 9 2 5 12 11 9 11 21 16 13 27 33 17 9 12 10 9 6 16 12 6 6 7 6
42 38 36 36 38 40 42 44 46 49 48 44 35 18 11 40 26 11 5 12 11 25 24 7 5 13 9 12 10 3 16 13 26 15 28 12 12 26 7 8 16 4 3 7 10 11 11
38 37 36 37 39 40 42 44 46 49 51 44 20 5 21 32 6 5 5 9 7 19 34 12 9 13 14 10 9 6 7 7 19 43 16 22 13 12 25 11 19 17 16 13 9 6 3
34 35 37 38 37 38 39 41 42 45 50 55 30 13 13 31 2 6 13 14 22 29 29 10 12 13 13 11 3 5 9 16 20 6 19 13 7 4 17 13 9 5 8 7 9 8 9
35 36 37 35 35 36 37 38 38 39 41 42 15 8 13 12 8 8 12 12 16 31 27 22 20 20 11 9 11 9 8 14 38 12 9 16 7 16 16 14 9 5 2 11 10 7 9
36 37 36 34 35 36 34 35 34 34 33 26 12 5 13 7 13 19 8 11 21 16 12 28 15 16 14 12 6 7 1 24 17 15 14 9 9 9 11 14 10 7 3 5 3 13 11
36 35 33 33 34 35 36 36 32 31 27 14 13 12 17 17 24 17 8 10 18 22 13 12 16 28 27 6 11 5 2 5 8 13 8 11 5 2 3 16 16 4 10 10 3 14 6
32 31 32 33 34 35 35 34 33 31 28 10 16 12 7 14 12 8 10 21 26 25 15 31 23 18 12 26 47 35 15 14 14 6 7 6 2 6 6 11 12 6 13 13 6 10 14
30 29 29 32 34 36 37 35 31 26 26 24 14 16 9 8 6 7 18 21 27 30 11 26 32 8 30 51 45 18 10 9 13 7 12 10 5 5 5 6 8 15 13 16 21 7 7
28 28 26 26 29 32 33 34 28 23 18 18 9 6 7 10 15 15 32 15 38 40 16 15 30 37 49 22 10 9 9 6 8 11 9 9 5 5 7 8 8 5 8 13 10 6 5
29 27 25 25 27 29 32 31 25 24 23 12 4 5 10 10 5 16 22 25 9 9 14 14 46 28 31 7 7 4 5 8 8 9 10 14 6 9 4 12 5 11 10 25 8 6 10
29 27 25 24 25 27 27 27 27 27 25 20 11 10 15 13 31 9 7 14 21 12 8 18 31 22 16 5 6 4 6 5 4 3 3 4 5 14 8 4 8 10 20 18 11 15 16
31 28 25 25 25 24 24 26 26 26 27 28 20 21 19 15 40 60 28 17 21 15 5 22 19 13 13 5 5 8 4 5 4 5 9 3 8 7 6 7 9 15 13 2 8 12 26
28 30 28 28 21 23 25 26 28 31 32 30 29 17 23 30 42 57 66 74 76 68 45 17 12 15 5 3 4 7 7 7 3 4 11 5 5 6 13 13 13 15 23 13 11 14 36
Wind_Direction_850mb
23 20 19 19 18 17 16 13 11 10 8 7 3 359 354 348 346 345 345 346 340 329 330 339 343 337 310 247 234 94 24 257 229 243 250 254 285 25 104 83 110 17 96 51 90 119 108
10 9 7 6 5 5 4 2 1 0 360 358 357 354 350 344 338 336 339 341 340 321 313 310 315 321 304 266 192 232 298 269 238 234 239 241 301 70 113 97 78 311 96 71 96 127 127
359 357 355 355 354 354 354 353 352 351 350 350 349 348 346 341 333 326 327 327 323 320 297 294 293 301 284 247 169 204 301 317 229 217 226 238 321 320 147 107 96 53 53 9 92 131 112
347 346 346 346 347 347 347 347 346 345 344 343 342 341 340 337 331 319 314 313 313 319 300 278 286 302 271 209 241 241 244 296 187 214 259 319 317 314 105 121 85 60 94 287 213 182 193
344 340 340 341 342 343 343 344 344 344 342 340 338 337 335 332 328 316 309 305 305 307 300 268 280 297 270 208 231 233 226 260 244 230 255 291 287 127 135 124 77 110 146 231 163 210 162
348 351 348 345 342 342 342 344 344 343 342 340 337 334 333 329 324 317 310 300 302 292 278 262 256 298 251 251 239 229 226 226 239 240 248 259 245 107 61 101 213 160 148 254 164 188 174
346 347 348 346 344 344 343 343 342 342 341 340 338 335 332 330 321 316 312 304 332 318 288 246 262 245 280 306 176 194 175 212 237 250 185 262 93 229 225 203 193 143 134 169 338 210 159
342 341 342 342 342 342 342 342 341 340 340 339 337 335 333 331 316 313 310 283 325 311 296 277 263 265 268 220 228 179 180 204 208 213 191 3 240 239 230 205 207 123 140 184 181 196 114
338 337 337 338 339 335 335 336 336 334 334 336 336 334 332 334 310 291 323 4 11 337 286 291 245 235 246 235 229 180 193 203 188 212 203 191 241 212 187 219 232 136 181 191 172 161 73
341 338 337 334 331 332 330 328 327 326 326 326 329 332 332 334 314 288 316 349 351 5 30 278 209 226 228 227 222 210 195 189 206 215 218 220 257 247 251 223 194 169 207 190 164 145 212
340 337 335 334 332 332 327 327 326 323 320 319 320 322 325 321 307 317 296 329 335 34 345 249 183 163 184 185 149 190 194 197 216 240 105 240 259 242 243 211 173 224 153 205 171 175 124
338 338 338 336 333 332 332 332 328 324 323 319 314 315 311 308 299 314 265 271 351 49 257 285 162 145 128 197 210 162 186 202 220 231 250 251 272 192 221 262 193 241 120 54 119 140 9
335 338 337 336 335 331 328 329 329 328 326 320 314 310 298 286 281 269 330 278 52 165 316 288 147 143 161 193 233 147 173 208 179 162 297 312 291 281 216 205 350 107 65 13 8 7 221
345 341 339 338 338 337 336 332 329 328 328 320 320 312 286 270 263 240 233 69 193 241 280 324 352 230 195 178 234 166 154 200 260 123 101 240 315 259 247 174 180 189 148 155 196 195 268
346 343 343 343 344 343 342 340 338 337 339 326 329 324 295 264 205 187 160 125 209 213 309 6 349 8 220 238 209 159 183 204 204 171 171 188 262 272 222 192 132 219 142 193 103 318 77
344 344 347 349 350 352 351 348 345 344 346 336 339 336 4 170 160 158 91 226 244 307 19 23 18 281 30 304 299 196 181 206 217 200 185 218 287 262 270 112 186 153 169 69 27 140 147
344 349 354 356 357 356 353 350 349 346 350 347 343 344 64 144 142 149 168 233 287 289 318 321 326 310 292 274 215 286 224 258 210 227 166 164 153 270 106 173 194 303 225 79 122 126 146
347 352 354 354 353 354 353 351 351 350 352 360 3 354 148 158 120 188 187 219 262 279 289 284 259 256 238 256 273 221 253 227 228 223 182 194 164 210 228 224 201 180 198 136 128 220 103
347 349 348 348 349 350 351 351 352 354 357 356 344 302 188 206 185 273 297 288 277 273 268 245 246 232 272 205 319 234 286 293 313 244 206 186 213 243 334 351 27 65 50 62 102 86 185
348 348 346 347 348 348 349 351 353 356 354 354 358 352 339 353 331 26 352 303 324 315 284 321 247 248 244 232 179 239 312 296 318 348 344 125 143 162 193 203 162 147 321 120 104 107 179
344 344 344 347 347 348 351 351 354 356 356 359 23 355 15 329 336 327 314 279 330 335 345 1 347 1 282 223 264 264 219 304 325 344 35 85 188 146 178 169 169 158 14 14 2 152 183
343 346 347 350 349 348 350 352 354 359 4 26 24 5 337 295 298 326 306 308 324 344 334 352 354 334 11 44 289 209 112 260 212 320 67 10 309 89 148 153 140 97 316 284 337 14 19
347 348 349 349 348 349 348 347 349 356 8 12 344 331 300 292 314 0 4 337 343 345 316 348 329 333 7 344 317 288 262 248 250 142 89 66 40 52 190 138 103 40 179 258 83 235 161
343 343 344 346 353 354 350 347 348 356 8 11 11 351 332 283 329 5 333 330 340 333 285 327 339 54 326 334 324 283 266 296 232 206 143 128 146 95 121 70 130 240 180 197 197 278 277
341 339 339 345 351 353 350 348 350 348 349 2 18 355 337 292 331 315 342 323 320 346 336 302 357 329 332 331 353 357 341 15 231 201 175 130 120 83 132 148 273 32 249 184 183 250 210
339 341 339 343 347 349 349 345 350 346 343 339 309 271 272 309 261 353 314 308 328 320 333 295 340 338 1 58 33 353 235 229 212 206 232 113 121 128 279 123 170 253 285 237 116 287 217
335 335 338 336 336 339 343 352 356 352 347 340 309 267 260 253 280 267 328 309 304 335 274 314 342 335 9 42 327 228 265 276 261 138 111 89 89 167 171 187 232 218 320 353 127 228 193
332 335 337 333 330 331 336 335 333 330 327 324 314 277 273 258 278 281 284 258 292 273 286 321 347 358 354 107 340 277 225 273 6 300 117 161 148 199 106 114 270 163 60 209 254 251 187
327 330 329 329 329 329 330 331 330 327 321 312 311 294 276 271 263 280 279 278 272 265 262 283 294 306 271 28 99 310 321 10 344 315 340 35 283 254 162 203 235 170 121 2 357 246 164